Oklahoma City / Page Muni, OK

8:09 PM CDT on September 22, 2017 (GMT -0500)
Oklahoma City / Page Muni

Weather History for KRCE - March, 2013

Change the Weather History Date:

Monday, March 25, 2013

  Actual Average (KPWA) Record (KPWA)
Temperature  
Mean Temperature 33 °F -  
Max Temperature 42 °F 57 °F 85 °F (1956)
Min Temperature 24 °F 37 °F 21 °F (1965)
Degree Days  
Heating Degree Days 32    
Moisture  
Dew Point 16 °F    
Average Humidity 50    
Maximum Humidity 80    
Minimum Humidity 29    
Precipitation  
Precipitation 0.00 in - - ()
Sea Level Pressure  
Sea Level Pressure 30.33 in    
Wind  
Wind Speed 11 mph (NNW)    
Max Wind Speed 25 mph    
Max Gust Speed 34 mph    
Visibility 10 miles    
Events      
Averages and records for this station are not official NWS values.
T = Trace of Precipitation, MM = Missing Value Source: NWS Daily Summary

Daily Weather History Graph

Daily Weather History Graph

Search for Another Location

Airport or City:

Trip Planner

Search our weather history database for the weather conditions in past years. The results will help you decide how hot, cold, wet, or windy it might be!

Date:

Astronomy

Mar. 25, 2013 Rise Set
Actual Time 7:27 AM CDT 7:47 PM CDT
Civil Twilight 7:01 AM CDT 8:12 PM CDT
Nautical Twilight 6:32 AM CDT 8:42 PM CDT
Astronomical Twilight 6:01 AM CDT 9:13 PM CDT
Moon 6:22 PM CDT (3/25) 6:08 AM CDT (3/25)
Length of Visible Light 13h 10m
Length of Day
12h 20m
Waxing Gibbous, 96% of the Moon is Illuminated
Mar 25
Waxing Gibbous
Mar 27
Full
Apr 2
Last Quarter
Apr 10
New
Apr 18
First Quarter

Hourly Weather History & Observations

Time (CDT) Temp. Windchill Dew Point Humidity Pressure Visibility Wind Dir Wind Speed Gust Speed Precip Events Conditions
12:15 AM 24.8 °F 20.5 °F 19.4 °F 80% 30.23 in 10.0 mi WNW 3.5 mph - N/A   Partly Cloudy
12:35 AM 26.6 °F 21.2 °F 19.4 °F 74% 30.23 in 10.0 mi NW 4.6 mph - N/A   Clear
12:55 AM 26.6 °F - 19.4 °F 74% 30.23 in 10.0 mi Calm Calm - N/A   Scattered Clouds
1:15 AM 28.4 °F 23.3 °F 19.4 °F 69% 30.24 in 10.0 mi West 4.6 mph - N/A   Mostly Cloudy
1:35 AM 28.4 °F 22.2 °F 21.2 °F 74% 30.24 in 10.0 mi NW 5.8 mph - N/A   Mostly Cloudy
1:55 AM 30.2 °F 22.6 °F 21.2 °F 69% 30.23 in 10.0 mi NNW 8.1 mph - N/A   Mostly Cloudy
2:15 AM 32.0 °F 24.2 °F 21.2 °F 64% 30.24 in 10.0 mi NNW 9.2 mph - N/A   Scattered Clouds
2:35 AM 32.0 °F 21.6 °F 19.4 °F 60% 30.24 in 10.0 mi NNW 15.0 mph 21.9 mph N/A   Partly Cloudy
2:55 AM 32.0 °F 21.6 °F 19.4 °F 60% 30.24 in 10.0 mi NNW 15.0 mph 20.7 mph N/A   Partly Cloudy
3:15 AM 32.0 °F 23.0 °F 19.4 °F 60% 30.25 in 10.0 mi NNW 11.5 mph - N/A   Scattered Clouds
3:35 AM 32.0 °F 24.2 °F 19.4 °F 60% 30.24 in 10.0 mi NNW 9.2 mph - N/A   Scattered Clouds
3:55 AM 32.0 °F 24.2 °F 19.4 °F 60% 30.24 in 10.0 mi NNW 9.2 mph - N/A   Mostly Cloudy
4:15 AM 32.0 °F 23.0 °F 19.4 °F 60% 30.24 in 10.0 mi NNW 11.5 mph - N/A   Mostly Cloudy
4:35 AM 32.0 °F 22.1 °F 17.6 °F 55% 30.24 in 10.0 mi NNW 13.8 mph 18.4 mph N/A   Mostly Cloudy
4:55 AM 32.0 °F 21.6 °F 17.6 °F 55% 30.25 in 10.0 mi NNW 15.0 mph 24.2 mph N/A   Mostly Cloudy
5:15 AM 30.2 °F 20.2 °F 19.4 °F 64% 30.26 in 10.0 mi NNW 12.7 mph 20.7 mph N/A   Scattered Clouds
5:35 AM 28.4 °F 18.5 °F 19.4 °F 69% 30.27 in 10.0 mi NNW 11.5 mph - N/A   Mostly Cloudy
5:55 AM 28.4 °F 17.5 °F 19.4 °F 69% 30.28 in 10.0 mi NNW 13.8 mph 20.7 mph N/A   Scattered Clouds
6:15 AM 28.4 °F 18.5 °F 21.2 °F 74% 30.29 in 10.0 mi NNW 11.5 mph 19.6 mph N/A   Clear
6:35 AM 26.6 °F 17.5 °F 21.2 °F 80% 30.30 in 10.0 mi NNW 9.2 mph - N/A   Partly Cloudy
6:55 AM 26.6 °F 17.5 °F 19.4 °F 74% 30.31 in 10.0 mi NNW 9.2 mph - N/A   Partly Cloudy
7:15 AM 26.6 °F 16.8 °F 19.4 °F 74% 30.31 in 10.0 mi NNW 10.4 mph - N/A   Clear
7:35 AM 26.6 °F 18.2 °F 19.4 °F 74% 30.32 in 10.0 mi NNW 8.1 mph - N/A   Clear
7:55 AM 26.6 °F 17.5 °F 19.4 °F 74% 30.33 in 8.0 mi NNW 9.2 mph - N/A   Clear
8:15 AM 26.6 °F 16.8 °F 19.4 °F 74% 30.34 in 9.0 mi NNW 10.4 mph - N/A   Clear
8:35 AM 28.4 °F 18.5 °F 19.4 °F 69% 30.34 in 9.0 mi NNW 11.5 mph 18.4 mph N/A   Clear
8:55 AM 30.2 °F 19.3 °F 17.6 °F 60% 30.35 in 10.0 mi NNW 15.0 mph 21.9 mph N/A   Clear
9:15 AM 30.2 °F 18.1 °F 17.6 °F 60% 30.36 in 10.0 mi NNW 18.4 mph 23.0 mph N/A   Clear
9:35 AM 32.0 °F 20.1 °F 15.8 °F 51% 30.36 in 10.0 mi North 19.6 mph 23.0 mph N/A   Clear
9:55 AM 32.0 °F 20.5 °F 14.0 °F 48% 30.37 in 10.0 mi North 18.4 mph 23.0 mph N/A   Clear
10:15 AM 32.0 °F 19.5 °F 14.0 °F 48% 30.38 in 10.0 mi NNW 21.9 mph 28.8 mph N/A   Clear
10:35 AM 33.8 °F 21.6 °F 14.0 °F 44% 30.38 in 10.0 mi NNW 23.0 mph 26.5 mph N/A   Clear
10:55 AM 35.6 °F 23.7 °F 12.2 °F 38% 30.39 in 10.0 mi NNW 24.2 mph 28.8 mph N/A   Clear
11:15 AM 35.6 °F 23.7 °F 12.2 °F 38% 30.38 in 10.0 mi NNW 24.2 mph 32.2 mph N/A   Clear
11:35 AM 37.4 °F 26.4 °F 12.2 °F 36% 30.39 in 10.0 mi NNW 23.0 mph 31.1 mph N/A   Clear
11:55 AM 37.4 °F 26.4 °F 14.0 °F 38% 30.38 in 10.0 mi NNW 23.0 mph 29.9 mph N/A   Clear
12:15 PM 37.4 °F 25.9 °F 10.4 °F 33% 30.38 in 10.0 mi North 25.3 mph 34.5 mph N/A   Clear
12:35 PM 37.4 °F 26.9 °F 12.2 °F 36% 30.38 in 10.0 mi North 20.7 mph 31.1 mph N/A   Clear
12:55 PM 37.4 °F 26.9 °F 12.2 °F 36% 30.38 in 10.0 mi North 20.7 mph 32.2 mph N/A   Clear
1:15 PM 39.2 °F 29.0 °F 14.0 °F 36% 30.38 in 10.0 mi NW 21.9 mph 28.8 mph N/A   Clear
1:35 PM 39.2 °F 29.0 °F 12.2 °F 33% 30.38 in 10.0 mi NNW 21.9 mph 31.1 mph N/A   Clear
1:55 PM 39.2 °F 29.6 °F 14.0 °F 36% 30.37 in 10.0 mi North 19.6 mph 27.6 mph N/A   Clear
2:15 PM 39.2 °F 29.8 °F 14.0 °F 36% 30.36 in 10.0 mi NNW 18.4 mph 27.6 mph N/A   Clear
2:35 PM 41.0 °F 32.2 °F 14.0 °F 33% 30.36 in 10.0 mi NNW 18.4 mph 29.9 mph N/A   Clear
2:55 PM 41.0 °F 32.2 °F 14.0 °F 33% 30.35 in 10.0 mi NNW 18.4 mph 28.8 mph N/A   Clear
3:15 PM 41.0 °F 32.5 °F 14.0 °F 33% 30.34 in 10.0 mi NW 17.3 mph 26.5 mph N/A   Clear
3:35 PM 41.0 °F 33.1 °F 14.0 °F 33% 30.33 in 10.0 mi NNW 15.0 mph 29.9 mph N/A   Clear
3:55 PM 42.8 °F 33.5 °F 14.0 °F 31% 30.33 in 10.0 mi North 23.0 mph 29.9 mph N/A   Clear
4:15 PM 42.8 °F 35.4 °F 12.2 °F 29% 30.33 in 10.0 mi NNW 15.0 mph 27.6 mph N/A   Clear
4:35 PM 41.0 °F 31.9 °F 10.4 °F 29% 30.32 in 10.0 mi North 19.6 mph 29.9 mph N/A   Clear
4:55 PM 41.0 °F 32.2 °F 12.2 °F 31% 30.32 in 10.0 mi North 18.4 mph 28.8 mph N/A   Clear
5:15 PM 42.8 °F 34.3 °F 14.0 °F 31% 30.32 in 10.0 mi NNW 19.6 mph 27.6 mph N/A   Clear
5:35 PM 42.8 °F 33.8 °F 12.2 °F 29% 30.32 in 10.0 mi NNW 21.9 mph 27.6 mph N/A   Clear
5:55 PM 42.8 °F 34.0 °F 12.2 °F 29% 30.32 in 10.0 mi North 20.7 mph 27.6 mph N/A   Clear
6:15 PM 41.0 °F 31.9 °F 12.2 °F 31% 30.32 in 10.0 mi North 19.6 mph 24.2 mph N/A   Clear
6:35 PM 41.0 °F 32.8 °F 12.2 °F 31% 30.33 in 10.0 mi North 16.1 mph 25.3 mph N/A   Clear
6:55 PM 41.0 °F 32.2 °F 12.2 °F 31% 30.34 in 10.0 mi NNW 18.4 mph 24.2 mph N/A   Clear
7:15 PM 39.2 °F 30.8 °F 12.2 °F 33% 30.34 in 10.0 mi NNW 15.0 mph 19.6 mph N/A   Clear
7:35 PM 37.4 °F 28.9 °F 12.2 °F 36% 30.35 in 10.0 mi North 13.8 mph - N/A   Clear
7:55 PM 37.4 °F 30.8 °F 12.2 °F 36% 30.35 in 10.0 mi NNW 9.2 mph - N/A   Clear
8:15 PM 33.8 °F 27.0 °F 14.0 °F 44% 30.36 in 8.0 mi North 8.1 mph - N/A   Clear
8:35 PM 32.0 °F 26.4 °F 14.0 °F 48% 30.36 in 10.0 mi North 5.8 mph - N/A   Clear
8:55 PM 32.0 °F 25.6 °F 14.0 °F 48% 30.36 in 10.0 mi North 6.9 mph - N/A   Clear
9:15 PM 32.0 °F 25.6 °F 14.0 °F 48% 30.37 in 10.0 mi North 6.9 mph - N/A   Clear
9:35 PM 32.0 °F 26.4 °F 14.0 °F 48% 30.38 in 10.0 mi North 5.8 mph - N/A   Clear
9:55 PM 30.2 °F 24.3 °F 14.0 °F 51% 30.38 in 10.0 mi North 5.8 mph - N/A   Clear
10:15 PM 32.0 °F 27.5 °F 14.0 °F 48% 30.39 in 10.0 mi North 4.6 mph - N/A   Clear
10:35 PM 30.2 °F 25.4 °F 14.0 °F 51% 30.39 in 10.0 mi North 4.6 mph - N/A   Clear
10:55 PM 30.2 °F 26.7 °F 14.0 °F 51% 30.40 in 10.0 mi North 3.5 mph - N/A   Clear
11:15 PM 28.4 °F 23.3 °F 14.0 °F 55% 30.40 in 10.0 mi North 4.6 mph - N/A   Clear
11:35 PM 28.4 °F 22.2 °F 14.0 °F 55% 30.41 in 10.0 mi North 5.8 mph - N/A   Clear
11:55 PM 26.6 °F 20.0 °F 14.0 °F 59% 30.41 in 10.0 mi North 5.8 mph - N/A   Clear